Location: Newark
(34.6283°N, 36.0776°E)
Time: 14:35:00
(UTC+00:00)

Courier 1B Rocket - Pass Details

Date: 20 September 2019
Orbit: 920 x 1202 km, 28.2° (Epoch: 19 October)

Event Time Altitude Azimuth Distance (km) Brightness Sun altitude
Rises 16:47:33 0° 268° (W) 3,824 9.7 -15.4°
Reaches altitude 10° 16:50:34 10° 260° (W) 2,822 8.5 -16.0°
Maximum altitude 16:56:42 36° 196° (SSW) 1,492 6.0 -17.3°
Enters shadow 17:00:26 20° 143° (SE) 2,050 6.3 -18.0°
